Weather Roundup
Issued by NWS

Home | Current Version | Previous Version | Text Only | Print | Product List | Glossary On
Versions: 1 2 3 4 5 6 7 8 9 10 11 12 13 14 15 16 17 18 19 20 21 22 23 24 25 26 27 28 29 30 31 32 33 34 35 36 37 38 39 40 41 42 43 44 45 46 47 48 49 50
000
NZUS93 KARX 201710
HRRWXR

CURRENT HOURLY OBSERVATIONS ACROSS
MUCH OF THE UPPER MISSISSIPPI VALLEY
NATIONAL WEATHER SERVICE LA CROSSE WI
1200 PM CDT THU JUL 20 2017


...SOUTHEAST MINNESOTA...


CITY           SKY/WX    TMP DP  RH WIND       PRES   REMARKS
ROCHESTER      MOSUNNY   80  72  76 VRB5      30.04S
ROCHESTER/MAYO FAIR      80  70  71 E3        30.04S
WINONA         PTSUNNY   79  68  69 CALM      30.02S
AUSTIN         MOSUNNY   81  72  74 E5        30.03R
ALBERT LEA     MOSUNNY   81  72  74 NE8       30.03R
DODGE CENTER   MOSUNNY   81  70  69 E3        30.04S
PRESTON        MOSUNNY   79  69  72 CALM      30.04S
OWATONNA       MOSUNNY   82  72  69 E8        30.03S
FARIBAULT      MOSUNNY   81  70  69 E5        30.03S
$$

...ELSEWHERE IN MINNESOTA...


CITY           SKY/WX    TMP DP  RH WIND       PRES   REMARKS
MINNEAPOLIS    CLOUDY    81  69  67 VRB3      30.02F
INTNL FALLS    SUNNY     74  57  55 NW8       30.01R
DULUTH         MOSUNNY   79  63  57 NW10      30.01S
RED WING       PTSUNNY   79  70  73 NW3       30.01S
REDWOOD FALLS  CLOUDY    77  68  73 SE5       30.04R
MANKATO        MOSUNNY   79  71  76 NE3       30.04R
WORTHINGTON    MOSUNNY   80  69  69 E14       30.05S
FAIRMONT       MOSUNNY   80  73  79 E8        30.04R
$$

...SOUTHWEST WISCONSIN...


CITY           SKY/WX    TMP DP  RH WIND       PRES   REMARKS
LA CROSSE      MOSUNNY   82  72  71 NW6       30.01S
PRAIRIE DU CHI CLOUDY    80  70  71 CALM      29.99S
BOSCOBEL       PTSUNNY   83  72  69 W6        29.99F
LONE ROCK      PTSUNNY   81  71  71 N5        29.99S
PLATTEVILLE    MOSUNNY   79  76  92 SW6       30.00F
FORT MC COY    CLOUDY    78  69  72 W3        30.02F
CAMP DOUGLAS   PTSUNNY   81  72  74 NW6       30.01S
MAUSTON-NEW LI MOSUNNY   80  72  75 NW7       30.00S
VIROQUA        FAIR      79  72  78 NW3       30.03S
WIS DELLS      MOSUNNY   82  68  63 W7        30.00S
$$

...ELSEWHERE IN WISCONSIN...


CITY           SKY/WX    TMP DP  RH WIND       PRES   REMARKS
MILWAUKEE      MOSUNNY   84  71  65 NW12      29.97S
MADISON        MOSUNNY   80  71  74 NW7       29.98F
GREEN BAY      CLOUDY    81  72  74 W14       29.97S
EAU CLAIRE     CLOUDY    77  69  76 W7        30.02S
BLACK RVR FLS  FAIR      80  67  65 CALM      30.02S
MEDFORD        MOSUNNY   76  65  69 NW7       30.03S
WAUSAU         CLOUDY    78  65  63 W7        30.00S
WIS RAPIDS     CLOUDY    79  70  74 NW9       30.03S
MARSHFIELD     PTSUNNY   76  67  73 VRB3      30.02F
RICE LAKE      MOSUNNY   78  67  69 W7        30.05S
$$

...NORTHEAST IOWA...


CITY           SKY/WX    TMP DP  RH WIND       PRES   REMARKS
WATERLOO       CLOUDY    85  76  74 NE8       29.96S HX  94
DUBUQUE        MOSUNNY   81  74  79 S6        30.00S
DECORAH        CLOUDY    79  73  83 N6        30.01F
MASON CITY     PTSUNNY   81  74  79 NE6       30.03S
CHARLES CITY   CLOUDY    81  75  83 E6        30.01S
OELWEIN        CLOUDY    82  77  83 E5        30.00F HX  91
$$

...ELSEWHERE IN IOWA...


CITY           SKY/WX    TMP DP  RH WIND       PRES   REMARKS
DES MOINES     CLOUDY    91  73  55 S7        29.96S HX  99
IOWA CITY      SUNNY     88  76  67 VRB6      29.98F HX  99
FORT DODGE     SUNNY     88  75  66 NE8       30.00R HX  97
MARSHALLTOWN   SUNNY     89  77  67 NE5       29.97R HX 101
CEDAR RAPIDS   SUNNY     85  78  80 SW3       29.97S HX  96
$$

...NORTHERN ILLINOIS...


CITY           SKY/WX    TMP DP  RH WIND       PRES   REMARKS
CHICAGO-OHARE  PTSUNNY   83  71  67 SW15G21   29.95F
CHICAGO-MIDWAY PTSUNNY   84  72  67 SW15G26   29.95F
MOLINE         CLOUDY    85  76  74 S9        29.97F HX  94
ROCKFORD       PTSUNNY   83  73  72 W8        29.98F
PEORIA         PTSUNNY   86  76  71 S12       30.00F HX  96
$$

NOTE: "FAIR" INDICATES FEW OR NO CLOUDS BELOW 12,000 FEET WITH NO
SIGNIFICANT WEATHER AND/OR OBSTRUCTIONS TO VISIBILITY. WIND
SPEEDS ARE IN MILES-PER-HOUR.




USA.gov is the U.S. government's official web portal to all federal, state and local government web resources and services.